| time (UTC) | temp F | wind direction | speed MPH | gust MPH | rain 1hr in | rain 24hr in | rain mn in | humidity % | barometer mb |
| 20260901104652 | 73 | 260 | 0.0 | 3.0 | 0.00 | 0.00 | 0.00 | 95 | 1016.3 |
| 20260901104153 | 73 | 245 | 0.0 | 3.0 | 0.00 | 0.00 | 0.00 | 95 | 1016.3 |
| 20260901102652 | 73 | 247 | 0.0 | 6.0 | 0.00 | 0.00 | 0.00 | 95 | 1016.4 |
| 20260901102152 | 73 | 249 | 0.0 | 6.0 | 0.00 | 0.00 | 0.00 | 94 | 1016.4 |
| 20260901101652 | 73 | 243 | 1.0 | 3.0 | 0.00 | 0.00 | 0.00 | 94 | 1016.2 |
| 20260901101152 | 73 | 257 | 0.0 | 2.0 | 0.00 | 0.00 | 0.00 | 94 | 1016.3 |
| 20260901100652 | 73 | 245 | 0.0 | 1.0 | 0.00 | 0.00 | 0.00 | 94 | 1016.3 |
| 20260901095652 | 73 | 255 | 0.0 | 3.0 | 0.00 | 0.00 | 0.00 | 94 | 1016.1 |
| 20260901095152 | 73 | 229 | 1.0 | 3.0 | 0.00 | 0.00 | 0.00 | 94 | 1016.2 |
| 20260901094150 | 73 | 246 | 1.0 | 2.0 | 0.00 | 0.00 | 0.00 | 94 | 1016.4 |
| 20260901093651 | 73 | 258 | 0.0 | 2.0 | 0.00 | 0.00 | 0.00 | 94 | 1016.2 |
| 20260901091151 | 73 | 235 | 1.0 | 2.0 | 0.00 | 0.00 | 0.00 | 94 | 1016.4 |
| 20260901090151 | 73 | 239 | 0.0 | 1.0 | 0.00 | 0.00 | 0.00 | 94 | 1016.3 |
| 20260901085651 | 73 | 242 | 0.0 | 2.0 | 0.00 | 0.00 | 0.00 | 94 | 1016.6 |
| 20260901085151 | 73 | 262 | 0.0 | 3.0 | 0.00 | 0.00 | 0.00 | 94 | 1016.6 |
| 20260901084651 | 73 | 259 | 0.0 | 3.0 | 0.00 | 0.00 | 0.00 | 94 | 1016.8 |
| 20260901083650 | 73 | 249 | 0.0 | 3.0 | 0.00 | 0.00 | 0.00 | 94 | 1016.7 |
| 20260901083151 | 73 | 246 | 0.0 | 2.0 | 0.00 | 0.00 | 0.00 | 94 | 1016.8 |
| 20260901082650 | 73 | 269 | 1.0 | 2.0 | 0.00 | 0.00 | 0.00 | 94 | 1016.9 |
| 20260901081651 | 73 | 253 | 0.0 | 3.0 | 0.00 | 0.00 | 0.00 | 94 | 1016.8 |
| 20260901081151 | 73 | 245 | 1.0 | 4.0 | 0.00 | 0.00 | 0.00 | 93 | 1016.5 |
| 20260901080651 | 73 | 248 | 0.0 | 4.0 | 0.00 | 0.00 | 0.00 | 93 | 1016.7 |
| 20260901080153 | 72 | 257 | 1.0 | 2.0 | 0.00 | 0.00 | 0.00 | 93 | 1016.5 |
| 20260901075151 | 72 | 244 | 0.0 | 1.0 | 0.00 | 0.00 | 0.00 | 93 | 1016.5 |
| 20260901074651 | 72 | 264 | 0.0 | 1.0 | 0.00 | 0.00 | 0.00 | 93 | 1016.5 |
| 20260901074152 | 72 | 274 | 0.0 | 2.0 | 0.00 | 0.00 | 0.00 | 93 | 1016.5 |
| 20260901073652 | 72 | 252 | 2.0 | 3.0 | 0.00 | 0.00 | 0.00 | 93 | 1016.6 |
| 20260901073152 | 72 | 251 | 0.0 | 3.0 | 0.00 | 0.00 | 0.00 | 93 | 1016.6 |
| 20260901072652 | 72 | 267 | 0.0 | 1.0 | 0.00 | 0.00 | 0.00 | 93 | 1016.8 |
| 20260901072151 | 72 | 245 | 0.0 | 0.0 | 0.00 | 0.00 | 0.00 | 93 | 1016.7 |
| 20260901071652 | 72 | 247 | 0.0 | 1.0 | 0.00 | 0.00 | 0.00 | 93 | 1016.9 |
| 20260901071153 | 72 | 239 | 0.0 | 1.0 | 0.00 | 0.00 | 0.00 | 93 | 1016.8 |
| 20260901070652 | 72 | 260 | 0.0 | 2.0 | 0.00 | 0.00 | 0.00 | 93 | 1017.0 |
| 20260901065654 | 72 | 261 | 0.0 | 2.0 | 0.00 | 0.00 | 0.00 | 93 | 1016.9 |
| 20260901065150 | 72 | 243 | 0.0 | 1.0 | 0.00 | 0.00 | 0.00 | 93 | 1017.2 |
| 20260901064650 | 72 | 244 | 0.0 | 2.0 | 0.00 | 0.00 | 0.00 | 93 | 1017.1 |
| 20260901064150 | 72 | 246 | 0.0 | 2.0 | 0.00 | 0.00 | 0.00 | 93 | 1017.1 |
| 20260901063650 | 72 | 249 | 0.0 | 2.0 | 0.00 | 0.00 | 0.00 | 93 | 1017.3 |
| 20260901063152 | 72 | 242 | 0.0 | 2.0 | 0.00 | 0.00 | 0.00 | 93 | 1017.2 |
| 20260901062151 | 72 | 273 | 0.0 | 2.0 | 0.00 | 0.00 | 0.00 | 92 | 1017.4 |
| 20260901060651 | 72 | 261 | 0.0 | 3.0 | 0.00 | 0.00 | 0.00 | 92 | 1017.3 |
| 20260901055651 | 72 | 243 | 2.0 | 2.0 | 0.00 | 0.00 | 0.00 | 91 | 1017.6 |
| 20260901055151 | 72 | 248 | 0.0 | 2.0 | 0.00 | 0.00 | 0.00 | 91 | 1017.4 |
| 20260901054638 | 72 | 287 | 0.0 | 3.0 | 0.00 | 0.00 | 0.00 | 91 | 1017.7 |
| 20260901054138 | 72 | 243 | 1.0 | 3.0 | 0.00 | 0.00 | 0.00 | 91 | 1017.9 |
| 20260901053638 | 72 | 238 | 1.0 | 3.0 | 0.00 | 0.00 | 0.00 | 91 | 1017.7 |
| 20260901053138 | 72 | 334 | 0.0 | 2.0 | 0.00 | 0.00 | 0.00 | 91 | 1018.1 |
| 20260901052638 | 72 | 275 | 0.0 | 2.0 | 0.00 | 0.00 | 0.00 | 91 | 1017.8 |
| 20260901052138 | 72 | 233 | 0.0 | 2.0 | 0.00 | 0.00 | 0.00 | 90 | 1017.6 |
| 20260901051640 | 72 | 263 | 1.0 | 2.0 | 0.00 | 0.00 | 0.00 | 90 | 1018.0 |
| 20260901050638 | 72 | 263 | 0.0 | 2.0 | 0.00 | 0.00 | 0.00 | 91 | 1018.2 |
| 20260901045638 | 72 | 252 | 0.0 | 2.0 | 0.00 | 0.00 | 0.00 | 90 | 1017.8 |
| 20260901045139 | 72 | 249 | 0.0 | 2.0 | 0.00 | 0.00 | 0.00 | 90 | 1018.5 |
| 20260901044639 | 72 | 243 | 1.0 | 2.0 | 0.00 | 0.00 | 0.00 | 90 | 1018.1 |
| 20260901044141 | 72 | 266 | 0.0 | 2.0 | 0.00 | 0.00 | 0.00 | 90 | 1018.1 |
| 20260901043639 | 72 | 258 | 0.0 | 3.0 | 0.00 | 0.00 | 0.00 | 90 | 1018.0 |
| 20260901043139 | 72 | 247 | 0.0 | 3.0 | 0.00 | 0.00 | 0.00 | 90 | 1017.9 |
| 20260901042639 | 72 | 181 | 2.0 | 2.0 | 0.00 | 0.00 | 0.00 | 90 | 1018.2 |
| 20260901042139 | 72 | 197 | 1.0 | 3.0 | 0.00 | 0.00 | 0.00 | 90 | 1018.1 |
| 20260901041639 | 72 | 240 | 0.0 | 3.0 | 0.00 | 0.00 | 0.00 | 90 | 1018.2 |
| 20260901041139 | 72 | 217 | 1.0 | 2.0 | 0.00 | 0.00 | 0.00 | 90 | 1017.8 |
| 20260901040639 | 72 | 270 | 0.0 | 1.0 | 0.00 | 0.00 | 0.00 | 90 | 1018.2 |
| 20260901040138 | 72 | 261 | 0.0 | 2.0 | 0.00 | 0.00 | 0.00 | 90 | 1018.3 |
| 20260901035638 | 72 | 282 | 1.0 | 2.0 | 0.00 | 0.00 | 0.00 | 90 | 1018.1 |
| 20260901035125 | 72 | 251 | 0.0 | 1.0 | 0.00 | 0.00 | 0.00 | 90 | 1018.0 |
| 20260901034625 | 72 | 264 | 0.0 | 1.0 | 0.00 | 0.00 | 0.00 | 90 | 1018.2 |
| 20260901034125 | 72 | 249 | 0.0 | 0.0 | 0.00 | 0.00 | 0.00 | 90 | 1018.3 |
| 20260901033113 | 72 | 269 | 0.0 | 1.0 | 0.00 | 0.00 | 0.00 | 90 | 1018.3 |
| 20260901032613 | 72 | 249 | 0.0 | 1.0 | 0.00 | 0.00 | 0.00 | 90 | 1018.5 |
| 20260901031601 | 72 | 277 | 0.0 | 1.0 | 0.00 | 0.00 | 0.00 | 90 | 1018.3 |
| 20260901030049 | 72 | 255 | 0.0 | 0.0 | 0.00 | 0.00 | 0.00 | 90 | 1018.6 |
| 20260901025549 | 72 | 259 | 0.0 | 0.0 | 0.00 | 0.00 | 0.00 | 90 | 1018.6 |
| 20260901025049 | 72 | 260 | 0.0 | 1.0 | 0.00 | 0.00 | 0.00 | 89 | 1018.6 |
| 20260901024549 | 72 | 282 | 0.0 | 1.0 | 0.00 | 0.00 | 0.00 | 89 | 1018.7 |
| 20260901024049 | 72 | 267 | 0.0 | 1.0 | 0.00 | 0.03 | 0.00 | 89 | 1018.7 |
| 20260901023549 | 72 | 245 | 0.0 | 1.0 | 0.00 | 0.03 | 0.00 | 89 | 1018.6 |
| 20260901023037 | 72 | 277 | 0.0 | 2.0 | 0.00 | 0.03 | 0.00 | 89 | 1018.6 |
| 20260901022536 | 72 | 116 | 2.0 | 2.0 | 0.00 | 0.03 | 0.00 | 89 | 1018.9 |
| 20260901021035 | 73 | 211 | 0.0 | 1.0 | 0.00 | 0.04 | 0.00 | 88 | 1018.6 |
| 20260901020536 | 73 | 262 | 0.0 | 1.0 | 0.00 | 0.04 | 0.00 | 88 | 1019.0 |
| 20260901020036 | 73 | 242 | 0.0 | 1.0 | 0.00 | 0.04 | 0.00 | 88 | 1018.9 |
| 20260901015537 | 73 | 259 | 0.0 | 1.0 | 0.00 | 0.04 | 0.00 | 88 | 1018.8 |
| 20260901014536 | 73 | 270 | 0.0 | 1.0 | 0.00 | 0.04 | 0.00 | 88 | 1018.9 |
| 20260901014035 | 73 | 233 | 0.0 | 1.0 | 0.00 | 0.04 | 0.00 | 88 | 1019.2 |
| 20260901013535 | 73 | 244 | 0.0 | 1.0 | 0.00 | 0.04 | 0.00 | 88 | 1019.0 |
| 20260901013036 | 73 | 242 | 0.0 | 1.0 | 0.00 | 0.04 | 0.00 | 88 | 1018.9 |
| 20260901012536 | 73 | 248 | 0.0 | 1.0 | 0.00 | 0.04 | 0.00 | 88 | 1018.8 |
| 20260901012036 | 73 | 270 | 0.0 | 1.0 | 0.00 | 0.04 | 0.00 | 88 | 1018.8 |
| 20260901011535 | 73 | 262 | 0.0 | 2.0 | 0.00 | 0.04 | 0.00 | 88 | 1019.0 |
| 20260901011036 | 73 | 261 | 0.0 | 2.0 | 0.00 | 0.04 | 0.00 | 87 | 1019.0 |
| 20260901010535 | 73 | 243 | 0.0 | 1.0 | 0.00 | 0.04 | 0.00 | 87 | 1018.9 |
| 20260901010036 | 73 | 299 | 0.0 | 1.0 | 0.00 | 0.04 | 0.00 | 87 | 1018.7 |
| 20260901005536 | 73 | 249 | 0.0 | 1.0 | 0.00 | 0.04 | 0.00 | 87 | 1018.8 |
| 20260901005036 | 73 | 249 | 0.0 | 1.0 | 0.00 | 0.04 | 0.00 | 87 | 1018.7 |
| 20260901004536 | 73 | 258 | 0.0 | 1.0 | 0.00 | 0.04 | 0.00 | 88 | 1018.9 |
| 20260901004038 | 73 | 251 | 0.0 | 1.0 | 0.00 | 0.04 | 0.00 | 88 | 1018.6 |
| 20260901003539 | 73 | 276 | 0.0 | 1.0 | 0.00 | 0.04 | 0.00 | 88 | 1018.5 |
| 20260901003038 | 73 | 241 | 0.0 | 1.0 | 0.00 | 0.04 | 0.00 | 88 | 1018.7 |
| 20260901002536 | 73 | 241 | 0.0 | 0.0 | 0.00 | 0.04 | 0.00 | 88 | 1018.8 |
| 20260901002036 | 73 | 244 | 0.0 | 1.0 | 0.00 | 0.04 | 0.00 | 88 | 1018.8 |
| 20260901001036 | 73 | 245 | 0.0 | 1.0 | 0.00 | 0.04 | 0.00 | 87 | 1018.7 |
| 20260901000537 | 73 | 203 | 1.0 | 1.0 | 0.00 | 0.04 | 0.00 | 87 | 1018.4 |
| 20260901000038 | 73 | 239 | 0.0 | 1.0 | 0.00 | 0.04 | 0.00 | 88 | 1018.6 |
| 20260831235538 | 73 | 255 | 0.0 | 0.0 | 0.00 | 0.04 | 0.00 | 88 | 1018.7 |
| 20260831235035 | 73 | 262 | 0.0 | 0.0 | 0.00 | 0.04 | 0.00 | 88 | 1018.6 |
| 20260831234035 | 74 | 243 | 0.0 | 1.0 | 0.00 | 0.04 | 0.00 | 87 | 1018.6 |
| 20260831233524 | 74 | 246 | 0.0 | 2.0 | 0.00 | 0.04 | 0.00 | 87 | 1018.7 |
| 20260831232525 | 74 | 240 | 0.0 | 2.0 | 0.00 | 0.04 | 0.00 | 87 | 1018.6 |
| 20260831232012 | 74 | 241 | 0.0 | 2.0 | 0.00 | 0.04 | 0.00 | 86 | 1018.7 |
| 20260831231514 | 74 | 242 | 0.0 | 2.0 | 0.00 | 0.04 | 0.00 | 86 | 1018.8 |
| 20260831231012 | 74 | 296 | 1.0 | 1.0 | 0.00 | 0.04 | 0.00 | 86 | 1018.6 |
| 20260831230500 | 74 | 261 | 0.0 | 1.0 | 0.00 | 0.04 | 0.00 | 86 | 1018.5 |
| 20260831225959 | 74 | 267 | 0.0 | 1.0 | 0.00 | 0.04 | 0.00 | 86 | 1019.0 |
| 20260831224949 | 74 | 253 | 0.0 | 2.0 | 0.00 | 0.04 | 0.00 | 86 | 1018.8 |
| 20260831223948 | 75 | 224 | 0.0 | 1.0 | 0.00 | 0.04 | 0.00 | 85 | 1018.6 |
| 20260831223448 | 75 | 243 | 0.0 | 1.0 | 0.00 | 0.04 | 0.00 | 84 | 1018.6 |
| 20260831222949 | 75 | 263 | 0.0 | 1.0 | 0.00 | 0.04 | 0.00 | 84 | 1018.7 |
| 20260831222449 | 76 | 255 | 0.0 | 2.0 | 0.00 | 0.04 | 0.00 | 84 | 1018.7 |
| 20260831221949 | 76 | 88 | 0.0 | 2.0 | 0.00 | 0.04 | 0.00 | 83 | 1018.7 |
| 20260831221449 | 76 | 222 | 1.0 | 1.0 | 0.00 | 0.04 | 0.00 | 83 | 1018.6 |
| 20260831220949 | 76 | 243 | 0.0 | 1.0 | 0.00 | 0.04 | 0.00 | 83 | 1018.7 |
| 20260831220449 | 76 | 247 | 0.0 | 1.0 | 0.00 | 0.04 | 0.00 | 84 | 1018.9 |
| 20260831215449 | 76 | 246 | 0.0 | 1.0 | 0.00 | 0.04 | 0.00 | 83 | 1018.8 |
| 20260831214449 | 77 | 241 | 1.0 | 1.0 | 0.00 | 0.04 | 0.00 | 82 | 1018.9 |
| 20260831213949 | 77 | 238 | 0.0 | 1.0 | 0.00 | 0.04 | 0.00 | 82 | 1019.0 |
| 20260831212948 | 77 | 264 | 0.0 | 2.0 | 0.00 | 0.04 | 0.00 | 80 | 1019.0 |
| 20260831212448 | 77 | 242 | 0.0 | 1.0 | 0.00 | 0.04 | 0.00 | 81 | 1019.1 |
| 20260831211948 | 77 | 242 | 0.0 | 1.0 | 0.00 | 0.04 | 0.00 | 81 | 1019.0 |
| 20260831211449 | 76 | 246 | 0.0 | 1.0 | 0.00 | 0.04 | 0.00 | 82 | 1019.1 |
| 20260831210949 | 76 | 242 | 0.0 | 1.0 | 0.00 | 0.04 | 0.00 | 81 | 1019.3 |
| 20260831210449 | 77 | 268 | 0.0 | 2.0 | 0.00 | 0.04 | 0.00 | 81 | 1019.1 |
| 20260831205949 | 76 | 245 | 0.0 | 2.0 | 0.00 | 0.04 | 0.00 | 80 | 1019.2 |
| 20260831205449 | 77 | 75 | 0.0 | 6.0 | 0.00 | 0.04 | 0.00 | 80 | 1019.1 |
| 20260831204448 | 77 | 279 | 0.0 | 2.0 | 0.00 | 0.04 | 0.00 | 79 | 1019.2 |
| 20260831203949 | 77 | 241 | 0.0 | 2.0 | 0.00 | 0.04 | 0.00 | 78 | 1019.0 |
| 20260831203449 | 77 | 247 | 0.0 | 2.0 | 0.00 | 0.04 | 0.00 | 79 | 1019.1 |
| 20260831202949 | 76 | 250 | 0.0 | 2.0 | 0.00 | 0.04 | 0.00 | 80 | 1019.3 |
| 20260831201949 | 76 | 342 | 0.0 | 1.0 | 0.00 | 0.04 | 0.00 | 81 | 1019.4 |
| 20260831201447 | 76 | 249 | 0.0 | 1.0 | 0.00 | 0.04 | 0.00 | 80 | 1019.6 |
| 20260831200949 | 76 | 240 | 1.0 | 2.0 | 0.00 | 0.04 | 0.00 | 80 | 1019.6 |
| 20260831200449 | 76 | 237 | 0.0 | 2.0 | 0.00 | 0.04 | 0.00 | 80 | 1019.8 |
| 20260831195949 | 75 | 238 | 1.0 | 2.0 | 0.00 | 0.04 | 0.00 | 80 | 1019.6 |
| 20260831195449 | 75 | 246 | 0.0 | 1.0 | 0.00 | 0.04 | 0.00 | 81 | 1019.7 |
| 20260831194947 | 75 | 241 | 0.0 | 1.0 | 0.00 | 0.04 | 0.00 | 81 | 1019.7 |
| 20260831194447 | 76 | 246 | 0.0 | 2.0 | 0.00 | 0.04 | 0.00 | 81 | 1019.9 |
| 20260831193947 | 76 | 222 | 1.0 | 2.0 | 0.00 | 0.04 | 0.00 | 80 | 1020.0 |
| 20260831193447 | 76 | 264 | 1.0 | 2.0 | 0.00 | 0.04 | 0.00 | 80 | 1019.8 |
| 20260831192947 | 76 | 243 | 0.0 | 2.0 | 0.00 | 0.04 | 0.00 | 80 | 1019.9 |
| 20260831192447 | 76 | 248 | 0.0 | 2.0 | 0.00 | 0.04 | 0.00 | 80 | 1020.1 |
| 20260831191948 | 76 | 232 | 0.0 | 1.0 | 0.00 | 0.04 | 0.00 | 79 | 1020.0 |
| 20260831191448 | 76 | 246 | 0.0 | 3.0 | 0.00 | 0.04 | 0.00 | 79 | 1020.1 |
| 20260831190948 | 76 | 247 | 0.0 | 3.0 | 0.00 | 0.04 | 0.00 | 79 | 1020.2 |
| 20260831185948 | 76 | 262 | 0.0 | 4.0 | 0.00 | 0.04 | 0.00 | 79 | 1020.1 |
| 20260831185448 | 75 | 216 | 0.0 | 4.0 | 0.00 | 0.04 | 0.00 | 79 | 1020.0 |
| 20260831184948 | 76 | 244 | 0.0 | 2.0 | 0.00 | 0.04 | 0.00 | 79 | 1020.1 |
| 20260831183947 | 76 | 88 | 1.0 | 3.0 | 0.00 | 0.04 | 0.00 | 78 | 1020.2 |
| 20260831183447 | 76 | 248 | 0.0 | 2.0 | 0.00 | 0.04 | 0.00 | 77 | 1020.5 |
| 20260831182948 | 77 | 239 | 0.0 | 2.0 | 0.00 | 0.04 | 0.00 | 77 | 1020.3 |
| 20260831182447 | 77 | 239 | 0.0 | 3.0 | 0.00 | 0.04 | 0.00 | 76 | 1020.3 |
| 20260831181446 | 77 | 242 | 0.0 | 4.0 | 0.00 | 0.04 | 0.00 | 76 | 1020.7 |
| 20260831180947 | 77 | 231 | 0.0 | 2.0 | 0.00 | 0.04 | 0.00 | 74 | 1020.7 |
| 20260831180447 | 78 | 221 | 0.0 | 2.0 | 0.00 | 0.04 | 0.00 | 73 | 1020.3 |
| 20260831175948 | 78 | 246 | 0.0 | 2.0 | 0.00 | 0.04 | 0.00 | 74 | 1020.4 |
| 20260831175447 | 78 | 198 | 1.0 | 3.0 | 0.00 | 0.04 | 0.00 | 73 | 1020.7 |
| 20260831174947 | 78 | 229 | 1.0 | 3.0 | 0.00 | 0.04 | 0.00 | 72 | 1020.6 |
| 20260831174447 | 78 | 243 | 0.0 | 3.0 | 0.00 | 0.04 | 0.00 | 73 | 1020.3 |
| 20260831173946 | 79 | 1 | 0.0 | 4.0 | 0.00 | 0.04 | 0.00 | 72 | 1020.4 |
| 20260831173447 | 79 | 3 | 0.0 | 4.0 | 0.00 | 0.04 | 0.00 | 72 | 1020.3 |
| 20260831172947 | 81 | 218 | 1.0 | 3.0 | 0.00 | 0.04 | 0.00 | 68 | 1020.5 |
| 20260831172447 | 81 | 346 | 1.0 | 3.0 | 0.00 | 0.04 | 0.00 | 69 | 1020.5 |
| 20260831170934 | 79 | 320 | 0.0 | 4.0 | 0.00 | 0.04 | 0.00 | 72 | 1020.4 |
| 20260831170435 | 79 | 257 | 0.0 | 4.0 | 0.00 | 0.04 | 0.00 | 72 | 1020.3 |
| 20260831165934 | 80 | 165 | 1.0 | 3.0 | 0.00 | 0.04 | 0.00 | 70 | 1020.3 |
| 20260831165435 | 80 | 358 | 0.0 | 2.0 | 0.00 | 0.04 | 0.00 | 71 | 1020.2 |
| 20260831164933 | 80 | 234 | 0.0 | 3.0 | 0.00 | 0.04 | 0.00 | 70 | 1020.5 |
| 20260831164433 | 80 | 41 | 1.0 | 3.0 | 0.00 | 0.04 | 0.00 | 69 | 1020.3 |
| 20260831163934 | 80 | 226 | 0.0 | 2.0 | 0.00 | 0.04 | 0.00 | 70 | 1020.5 |
| 20260831162934 | 80 | 269 | 0.0 | 2.0 | 0.00 | 0.04 | 0.00 | 70 | 1020.5 |
| 20260831162433 | 81 | 225 | 0.0 | 2.0 | 0.00 | 0.04 | 0.00 | 69 | 1020.5 |
| 20260831161434 | 81 | 243 | 0.0 | 3.0 | 0.00 | 0.04 | 0.00 | 70 | 1020.3 |
| 20260831160934 | 80 | 253 | 1.0 | 2.0 | 0.00 | 0.04 | 0.00 | 70 | 1020.6 |
| 20260831160434 | 80 | 255 | 0.0 | 1.0 | 0.00 | 0.04 | 0.00 | 70 | 1020.6 |
| 20260831155933 | 80 | 235 | 0.0 | 4.0 | 0.00 | 0.04 | 0.00 | 70 | 1020.9 |
| 20260831155433 | 80 | 247 | 0.0 | 4.0 | 0.00 | 0.04 | 0.00 | 70 | 1020.9 |
| 20260831154434 | 80 | 245 | 0.0 | 2.0 | 0.00 | 0.04 | 0.00 | 72 | 1020.3 |
| 20260831152934 | 78 | 229 | 0.0 | 3.0 | 0.00 | 0.04 | 0.00 | 74 | 1020.5 |
| 20260831152434 | 78 | 261 | 0.0 | 2.0 | 0.00 | 0.04 | 0.00 | 74 | 1020.8 |
| 20260831151934 | 78 | 232 | 0.0 | 1.0 | 0.00 | 0.04 | 0.00 | 74 | 1020.7 |
| 20260831151434 | 78 | 258 | 0.0 | 1.0 | 0.00 | 0.04 | 0.00 | 74 | 1020.8 |
| 20260831150934 | 78 | 258 | 0.0 | 2.0 | 0.00 | 0.04 | 0.00 | 75 | 1020.8 |
| 20260831150434 | 77 | 261 | 0.0 | 2.0 | 0.00 | 0.04 | 0.00 | 75 | 1020.7 |
| 20260831145934 | 76 | 301 | 0.0 | 2.0 | 0.00 | 0.04 | 0.00 | 75 | 1020.7 |
| 20260831145434 | 77 | 352 | 1.0 | 2.0 | 0.00 | 0.04 | 0.00 | 75 | 1020.8 |
| 20260831144934 | 76 | 243 | 0.0 | 3.0 | 0.00 | 0.04 | 0.00 | 76 | 1021.2 |
| 20260831144434 | 76 | 252 | 0.0 | 3.0 | 0.00 | 0.04 | 0.00 | 75 | 1021.0 |
| 20260831143934 | 76 | 291 | 1.0 | 3.0 | 0.00 | 0.04 | 0.00 | 76 | 1020.8 |
| 20260831143434 | 76 | 107 | 1.0 | 2.0 | 0.00 | 0.04 | 0.00 | 75 | 1021.0 |
| 20260831142934 | 76 | 312 | 0.0 | 3.0 | 0.00 | 0.04 | 0.00 | 76 | 1020.8 |
| 20260831142434 | 76 | 247 | 0.0 | 3.0 | 0.00 | 0.04 | 0.00 | 76 | 1020.6 |
| 20260831141934 | 76 | 248 | 0.0 | 2.0 | 0.00 | 0.04 | 0.00 | 76 | 1020.7 |
| 20260831141434 | 76 | 255 | 0.0 | 2.0 | 0.00 | 0.04 | 0.00 | 77 | 1020.6 |
| 20260831140934 | 75 | 267 | 0.0 | 1.0 | 0.00 | 0.04 | 0.00 | 77 | 1020.7 |
| 20260831140434 | 75 | 247 | 0.0 | 3.0 | 0.00 | 0.04 | 0.00 | 77 | 1020.7 |
| 20260831135933 | 75 | 326 | 1.0 | 3.0 | 0.00 | 0.04 | 0.00 | 77 | 1020.7 |
| 20260831135434 | 76 | 270 | 0.0 | 1.0 | 0.00 | 0.04 | 0.00 | 78 | 1020.6 |
| 20260831134934 | 75 | 265 | 0.0 | 3.0 | 0.00 | 0.04 | 0.00 | 79 | 1020.5 |
| 20260831134434 | 75 | 267 | 0.0 | 3.0 | 0.00 | 0.04 | 0.00 | 80 | 1020.8 |
| 20260831133938 | 75 | 264 | 0.0 | 2.0 | 0.00 | 0.04 | 0.00 | 80 | 1020.9 |
| 20260831133434 | 75 | 271 | 0.0 | 1.0 | 0.00 | 0.04 | 0.00 | 80 | 1020.8 |
| 20260831132934 | 75 | 253 | 0.0 | 2.0 | 0.00 | 0.04 | 0.00 | 81 | 1020.6 |
| 20260831132434 | 74 | 251 | 0.0 | 2.0 | 0.00 | 0.04 | 0.00 | 81 | 1020.7 |
| 20260831131933 | 74 | 246 | 0.0 | 2.0 | 0.00 | 0.04 | 0.00 | 82 | 1020.6 |
| 20260831130934 | 74 | 261 | 0.0 | 2.0 | 0.00 | 0.04 | 0.00 | 83 | 1020.6 |
| 20260831130434 | 74 | 263 | 0.0 | 2.0 | 0.00 | 0.04 | 0.00 | 84 | 1020.7 |
| 20260831125934 | 74 | 266 | 0.0 | 2.0 | 0.00 | 0.04 | 0.00 | 84 | 1020.8 |
| 20260831124934 | 73 | 251 | 0.0 | 1.0 | 0.00 | 0.04 | 0.00 | 86 | 1020.6 |
| 20260831124434 | 73 | 246 | 0.0 | 1.0 | 0.00 | 0.04 | 0.00 | 86 | 1020.6 |
| 20260831123934 | 73 | 247 | 0.0 | 1.0 | 0.00 | 0.04 | 0.00 | 86 | 1020.7 |
| 20260831123434 | 72 | 247 | 0.0 | 1.0 | 0.00 | 0.04 | 0.00 | 86 | 1020.5 |
| 20260831122934 | 72 | 250 | 0.0 | 0.0 | 0.00 | 0.04 | 0.00 | 87 | 1020.6 |
| 20260831122434 | 72 | 249 | 0.0 | 1.0 | 0.00 | 0.04 | 0.00 | 87 | 1020.5 |
| 20260831121934 | 72 | 268 | 0.0 | 2.0 | 0.00 | 0.04 | 0.00 | 87 | 1020.8 |
| 20260831121434 | 72 | 267 | 1.0 | 2.0 | 0.00 | 0.04 | 0.00 | 87 | 1020.6 |
| 20260831115934 | 72 | 250 | 0.0 | 0.0 | 0.00 | 0.04 | 0.00 | 88 | 1020.5 |
| 20260831115433 | 71 | 250 | 0.0 | 0.0 | 0.00 | 0.04 | 0.00 | 88 | 1020.6 |
| 20260831114934 | 71 | 249 | 0.0 | 0.0 | 0.00 | 0.04 | 0.00 | 88 | 1020.4 |
| 20260831114433 | 71 | 251 | 0.0 | 0.0 | 0.00 | 0.04 | 0.00 | 88 | 1020.5 |
| 20260831113933 | 70 | 251 | 0.0 | 0.0 | 0.00 | 0.04 | 0.00 | 88 | 1020.6 |
| 20260831113433 | 70 | 261 | 0.0 | 0.0 | 0.00 | 0.04 | 0.00 | 88 | 1020.2 |
| 20260831112433 | 70 | 261 | 0.0 | 0.0 | 0.00 | 0.04 | 0.00 | 89 | 1020.2 |
| 20260831111933 | 70 | 257 | 0.0 | 0.0 | 0.00 | 0.04 | 0.00 | 90 | 1020.2 |
| 20260831111433 | 69 | 262 | 0.0 | 0.0 | 0.00 | 0.04 | 0.00 | 89 | 1020.3 |
| 20260831110933 | 69 | 265 | 0.0 | 0.0 | 0.00 | 0.04 | 0.00 | 90 | 1020.1 |
| 20260831110433 | 69 | 267 | 0.0 | 0.0 | 0.00 | 0.04 | 0.00 | 90 | 1020.1 |
| 20260831105933 | 69 | 265 | 0.0 | 0.0 | 0.00 | 0.04 | 0.00 | 90 | 1020.0 |
| 20260831105433 | 69 | 265 | 0.0 | 0.0 | 0.00 | 0.04 | 0.00 | 91 | 1020.0 |